TimeEST,TemperatureF,Dew PointF,Humidity,Sea Level PressureIn,VisibilityMPH,Wind Direction,Wind SpeedMPH,Gust SpeedMPH,PrecipitationIn,Events,Conditions,WindDirDegrees,DateUTC
12:16 AM,47.7,45.3,92,29.76,1.8,South,8.1,-,N/A,Rain,Light Rain,180,2012-11-11 05:16:00
12:36 AM,47.7,45.5,92,29.75,1.8,South,9.2,-,N/A,Rain,Light Rain,170,2012-11-11 05:36:00
12:55 AM,48.2,45.7,91,29.74,1.5,South,6.9,-,0.01,Rain,Rain,170,2012-11-11 05:55:00
1:16 AM,48.4,46.4,93,29.72,1.8,SSE,11.5,-,N/A,,Light Drizzle,160,2012-11-11 06:16:00
1:36 AM,48.7,46.6,92,29.72,1.5,South,11.5,-,N/A,,Overcast,170,2012-11-11 06:36:00
1:56 AM,49.1,46.9,92,29.72,1.2,South,11.5,-,N/A,Rain,Light Rain,170,2012-11-11 06:56:00
2:16 AM,49.5,47.5,93,29.72,1.5,SSE,12.7,-,0.01,Rain,Rain,160,2012-11-11 07:16:00
2:35 AM,50.0,47.7,92,29.72,1.8,South,13.8,-,0.01,Thunderstorm,Overcast,170,2012-11-11 07:35:00
2:56 AM,50.0,47.7,92,29.72,1.5,South,12.7,18.4,0.01,Rain,Light Rain,180,2012-11-11 07:56:00
3:16 AM,50.2,48.0,92,29.73,2.0,South,15.0,20.7,0.01,Rain-Thunderstorm,Light Thunderstorms and Rain,170,2012-11-11 08:16:00
3:35 AM,50.4,48.2,92,29.72,2.5,South,12.7,21.9,0.01,Rain,Rain,180,2012-11-11 08:35:00
3:56 AM,50.9,48.4,91,29.71,4.0,South,11.5,18.4,0.02,Rain,Light Rain,190,2012-11-11 08:56:00
4:16 AM,51.8,48.4,88,29.72,7.0,SSW,12.7,-,N/A,,Mostly Cloudy,200,2012-11-11 09:16:00
4:35 AM,50.9,48.2,90,29.72,5.0,South,13.8,-,N/A,Rain,Light Rain,180,2012-11-11 09:35:00
4:56 AM,51.1,48.2,90,29.72,5.0,South,12.7,-,N/A,,Mostly Cloudy,180,2012-11-11 09:56:00
5:15 AM,50.9,48.2,90,29.72,5.0,South,11.5,-,N/A,,Scattered Clouds,190,2012-11-11 10:15:00
5:36 AM,51.1,48.2,90,29.71,5.0,South,11.5,-,N/A,,Mostly Cloudy,190,2012-11-11 10:36:00
5:56 AM,50.9,47.8,89,29.72,5.0,South,12.7,-,N/A,,Mostly Cloudy,180,2012-11-11 10:56:00
6:50 AM,50.0,48.2,94,29.71,5.0,South,11.5,17.3,N/A,,Scattered Clouds,190,2012-11-11 11:50:00
7:50 AM,50.0,48.2,94,29.71,7.0,South,12.7,-,N/A,,Clear,170,2012-11-11 12:50:00
9:50 AM,53.6,50.0,88,29.67,10.0,South,11.5,-,N/A,,Scattered Clouds,170,2012-11-11 14:50:00
10:50 AM,53.6,48.2,82,29.68,10.0,South,21.9,-,N/A,,Scattered Clouds,170,2012-11-11 15:50:00
11:55 AM,57.2,50.0,77,29.68,10.0,SSW,16.1,-,N/A,,Overcast,200,2012-11-11 16:55:00
12:50 PM,57.2,50.0,77,29.67,10.0,South,12.7,24.2,N/A,,Overcast,190,2012-11-11 17:50:00
1:50 PM,57.2,50.0,77,29.62,10.0,South,12.7,-,N/A,,Mostly Cloudy,170,2012-11-11 18:50:00
2:50 PM,53.6,48.2,82,29.63,3.0,South,16.1,24.2,N/A,Rain,Rain,180,2012-11-11 19:50:00
3:50 PM,51.8,48.2,88,29.61,7.0,South,11.5,-,N/A,Rain,Light Rain,170,2012-11-11 20:50:00
4:50 PM,51.8,48.2,88,29.61,5.0,South,10.4,-,N/A,Rain,Light Rain,180,2012-11-11 21:50:00
5:50 PM,51.8,48.2,88,29.61,7.0,South,13.8,-,N/A,Rain,Rain,180,2012-11-11 22:50:00
6:50 PM,51.8,48.2,88,29.59,5.0,SSW,5.8,-,N/A,Rain,Rain,200,2012-11-11 23:50:00
7:50 PM,51.8,48.2,88,29.60,10.0,SSW,6.9,-,N/A,Rain,Light Rain,210,2012-11-12 00:50:00
8:55 PM,50.0,48.2,94,29.59,7.0,South,8.1,-,N/A,Rain,Light Rain,190,2012-11-12 01:55:00
9:50 PM,50.0,48.2,94,29.62,10.0,SSW,10.4,-,N/A,Rain,Light Rain,210,2012-11-12 02:50:00
10:16 PM,50.2,47.3,90,29.61,7.0,SSW,8.1,-,0.01,Rain,Rain,200,2012-11-12 03:16:00
10:35 PM,50.0,47.3,90,29.62,10.0,SSW,10.4,-,0.01,,Drizzle,200,2012-11-12 03:35:00
10:56 PM,50.0,46.6,88,29.63,7.0,SW,18.4,-,0.02,Rain,Light Rain,220,2012-11-12 03:56:00
11:16 PM,48.9,45.3,87,29.64,4.0,SW,15.0,23.0,0.01,Rain,Rain,220,2012-11-12 04:16:00
11:36 PM,40.6,36.9,86,29.65,4.0,WNW,10.4,-,0.03,Rain,Light Rain,300,2012-11-12 04:36:00
11:56 PM,39.2,37.4,93,29.69,7.0,West,10.4,-,N/A,Rain,Light Rain,280,2012-11-12 04:56:00